Welcome to our website!


1 month ago
Photos from Aerodrom Kings Land Ineu's post

We are happy that travel restrictions are over, and most of our members where able to enjoy a nice day on the airfield. 🌞✈️

2 months ago
Photos from Aerodrom Kings Land Ineu's post

Great activity today.... the IS28 is getting ready for the flying season 🙂

Fuel prices:

Avgas 100LL – 2,00€

Next events:

11th to 26th July 2020

Gliding Camp with international guests

Weather at Oradea Airport (LROD):

LROD 090130Z AUTO 11006KT 9999 SCT100/// 14/12 Q1019

TAF LROD 312030Z 3121/0203 CNL

Webcam at the clubhouse